Чернореченский

Россия / Кировская область     60°43′35″N   52°02′46″E
темп.,
°C
ветер,
м/с
пор.,
м/с
влажн.,
%
обл.,
%
осадки,
мм/ч
давл.,
гПа
погр.,
м
18 мая, вт
вт1823:00+13сз498580 0.1 1017647
02:00+13ссз3887100 0.0 1018502
05:00+10с269827 0.0 1020199
08:00+12ссв357841 0.0 1021547
11:00+17св23571 0.0 10211001
14:00+20св23419 0.0 10221444
17:00+21всв223618 0.0 10221547
20:00+20в2345100 0.0 1021145
19 мая, ср
ср1923:00+13юв236694 0.0 102353
02:00+12юв2572100 0.0 102376
05:00+10ююв267948 0.0 1023104
08:00+15ю36606 0.0 1023284
11:00+21ю354521 0.0 10231062
14:00+24ю343467 0.0 10221619
17:00+25ююз343222 0.0 10211739
20:00+22ю36425 0.0 1020311
20 мая, чт
чт2023:00+16ю246593 0.0 102060
02:00+14ююз247267 0.0 102072
05:00+12ююз257497 0.0 102189
08:00+16ююз366041 0.0 1021224
11:00+23ююз343711 0.0 10201102
14:00+25ююз45272 0.0 10191718
17:00+26ююз34240 0.0 10181749
20:00+24ю26360 0.0 1017225
21 мая, пт
пт2123:00+17ю23570 0.0 101743
02:00+14ю22680 0.0 101732
05:00+13ю23730 0.0 101757
08:00+18ю35560 0.0 1016259
11:00+23ю48370 0.0 10151664
14:00+25ю57295 0.0 10142272
17:00+25ю592752 0.0 10123132
20:00+21ю224086 0.0 101131
22 мая, сб
сб2223:00+17ю236399 0.0 101045
02:00+17юз51162100 0.0 1010437
05:00+15ююв2571100 0.1 1010188
08:00+16ююз2772100 0.0 1009409
11:00+15з4881100 0.4 1010657
14:00+18зсз5868100 0.8 10111338
17:00+18сз495297 1.1 10141903
20:00+18з373828 0.0 1014772